Lid_Strength_Index
11 11 11 12 13 14 13 13 12 16 15 15 12 12 15 13 11 11 11 10 8 8 8 8 8 8 8 8 7 7 7 7 6 6 5 5 5 4
10 12 11 12 11 14 13 13 14 13 15 16 13 13 14 13 12 11 11 10 9 9 8 8 9 9 9 8 8 8 7 7 7 7 6 6 5 5
11 11 11 11 11 13 14 14 14 14 15 16 14 14 14 15 15 15 15 15 14 11 10 10 9 9 9 9 9 8 8 8 8 7 7 6 6 5
12 12 11 11 12 12 13 13 13 14 15 16 15 15 15 16 17 15 15 14 16 13 11 10 10 10 10 10 9 9 9 9 9 8 8 7 7 6
12 12 12 12 12 12 12 13 14 15 17 16 16 15 15 15 15 15 16 16 15 13 11 11 11 11 11 11 10 10 10 10 10 9 9 8 8 8
13 12 12 12 12 12 13 13 14 15 16 16 17 16 16 16 18 17 17 17 16 15 14 14 13 13 13 12 12 11 11 11 10 9 9 9 9 9
13 13 13 12 12 12 12 13 14 14 15 16 17 17 17 17 17 17 17 17 17 18 19 18 18 17 17 15 14 13 12 11 10 10 10 10 9 9
12 13 13 13 12 11 11 11 12 13 14 15 16 17 16 16 17 17 19 19 18 19 20 19 19 19 18 18 14 13 12 11 11 10 10 10 9 9
12 13 13 13 13 12 11 11 12 11 11 13 14 15 16 16 16 17 18 19 20 19 20 20 20 19 18 17 13 12 12 11 11 10 10 10 10 9
12 12 13 13 12 12 12 13 13 12 13 14 13 14 14 14 15 15 16 18 20 20 21 21 21 19 19 18 14 12 12 12 12 12 11 11 11 10
12 12 12 13 12 11 12 13 13 13 12 12 12 12 12 12 14 15 17 18 22 21 21 21 20 21 20 19 17 12 12 12 12 11 11 11 11 11
11 11 11 11 11 11 12 13 14 14 14 14 13 12 12 12 13 14 16 18 19 21 20 20 21 21 21 19 19 19 18 12 12 11 11 11 11 16
11 12 11 10 10 9 10 12 12 13 12 13 14 14 13 14 14 15 15 16 18 18 18 18 22 22 23 21 20 20 19 17 17 15 12 12 11 12
12 12 11 9 9 8 9 10 10 11 12 13 13 15 14 15 14 15 15 15 15 15 16 17 19 21 23 22 20 18 19 18 18 18 18 14 13 12
11 11 10 9 8 8 9 9 11 11 12 13 14 14 14 14 15 15 15 15 15 15 14 15 15 18 19 21 20 20 18 18 19 19 20 20 20 20
11 11 10 10 9 10 10 10 12 12 13 14 14 14 15 16 18 16 17 16 16 16 17 17 15 15 20 18 17 17 19 21 21 21 22 22 21 22
12 11 11 11 12 12 12 12 13 13 13 14 14 15 15 16 17 15 15 16 19 20 19 19 18 15 15 16 16 19 22 24 22 21 22 21 21 22
14 15 15 13 13 12 13 13 13 13 13 13 14 14 15 15 16 16 17 18 19 18 17 18 22 22 22 22 15 17 20 22 22 23 24 23 22 20
16 15 14 14 14 13 14 14 15 14 13 13 14 14 14 15 15 15 17 20 22 24 26 26 26 24 26 27 23 14 18 23 23 23 25 26 25 19
14 15 15 15 14 14 15 15 16 15 15 15 15 15 15 16 19 18 21 22 25 28 28 29 26 25 24 23 23 23 16 24 27 28 27 28 22 16
14 14 14 15 15 15 15 15 16 16 16 16 17 17 18 19 23 22 22 23 25 28 28 26 23 25 29 29 26 25 24 18 20 28 29 30 28 28
15 15 14 15 15 15 15 16 17 17 18 18 18 19 20 20 22 23 23 25 27 26 28 30 30 29 30 28 30 31 28 28 22 18 16 18 26 25
18 16 15 14 15 15 16 17 17 18 18 19 19 20 21 22 22 22 24 25 26 29 30 30 32 32 35 32 32 34 33 31 30 29 26 17 16 15